Flag for Mexico Weather past 2 weeks in Mexicali, Baja California, Mexico

Now
92 °F

Sunny.


Feels Like: 88 °F
Forecast: 69 / 92 °F
Wind: 3 mph from North

Location: Imperial County Airport

Current Time: Oct 21, 2014 at 3:10:55 PM

Latest Report: Oct 21, 2014 at 1:53 PM


Visibility: 10 mi

Pressure: 29.74 "Hg

Humidity: 21%

Dew point: 46 °F

Location of MexicaliLocation

Historic Weather in Mexicali — Graph

°F

Mexicali temperature yesterday

Maximum temperature yesterday: 93 °F (at 2:53 PM)
Minimum temperature yesterday: 68 °F (at 5:53 AM)
Average temperature yesterday: 80 °F

Past Weeks' High & Low Weather Summary

 TemperatureHumidityPressure
High98 °F (Oct 12, 4:53 PM)93% (Oct 11, 6:00 AM)30.01 "Hg (Oct 11, 6:00 AM)
Low58 °F (Oct 14, 6:53 AM)7% (Oct 13, 11:53 AM)27.00 "Hg (Oct 16, 10:20 PM)
Average79 °F42%29.81 "Hg
* Reported Oct 6 1:53 PM — Oct 21 1:53 PM, Mexicali, Weather by CustomWeather, © 2014

Note: Actual official high and low records may vary slightly from our data, if they occured in-between our weather recording intervals... More about our weather records

Advertising

Mexicali weather history for previous 24 hours

 ConditionsComfort  
Time TempWeatherWind HumidityBarometerVisibility
1:53 PM
Oct 21
92 °FSunny.3 mph21%29.74 "Hg10 mi
12:53 PM90 °FSunny.6 mph24%29.77 "Hg10 mi
11:53 AM87 °FSunny.3 mph28%29.80 "Hg10 mi
10:53 AM85 °FSunny.9 mph35%29.81 "Hg10 mi
9:53 AM83 °FSunny.5 mph34%29.81 "Hg10 mi
8:53 AM77 °FSunny.No wind44%29.82 "Hg10 mi
7:53 AM70 °FSunny.6 mph55%29.81 "Hg10 mi
6:53 AM67 °FClear.3 mph57%29.79 "Hg10 mi
5:53 AM68 °FClear.5 mph53%29.79 "Hg10 mi
4:53 AM69 °FClear.No wind51%29.77 "Hg10 mi
3:53 AM70 °FClear.5 mph49%29.77 "Hg10 mi
2:53 AM70 °FClear.3 mph53%29.77 "Hg10 mi
1:53 AM70 °FClear.3 mph55%29.77 "Hg10 mi
12:53 AM74 °FClear.5 mph48%29.77 "Hg10 mi
11:53 PM
Oct 20
75 °FClear.5 mph48%29.77 "Hg10 mi
10:53 PM77 °FClear.6 mph42%29.77 "Hg10 mi
9:53 PM76 °FClear.5 mph47%29.77 "Hg10 mi
8:53 PM78 °FClear.10 mph45%29.76 "Hg10 mi
7:53 PM82 °FClear.No wind35%29.74 "Hg10 mi
6:53 PM84 °FSunny.No wind33%29.73 "Hg10 mi
5:53 PM91 °FSunny.3 mph25%29.72 "Hg10 mi
4:53 PM93 °FSunny.5 mph24%29.73 "Hg10 mi
3:53 PM93 °FSunny.6 mph25%29.74 "Hg10 mi
Weather by CustomWeather, © 2014

See weather overviewHow to use our weather pages